CFG2YP EPKK-EDDB

Flight info

Callsign CFG2YP
Flight time N/A
Altitude 32000
Route LUMVE L619 NUDRO T710 VAGON T205 GOVEN/N0435F280 T205 NUKRO
Aircraft B753/M-SDE2E3FGHIJ3J4J7RWXY/LB1

Departure

Time N/A
Airport Kraków John Paul II International Airport (EPKK)

Arrival

Time 2026-05-05 19:06
Airport Berlin Brandenburg Airport (EDDB)
Time Latitude Longitude Altitude Speed Heading
2026-05-05 18:45 51.98650 14.99171 17206 ft 359 kts 294°
2026-05-05 18:45 51.99744 14.95591 16845 ft 358 kts 294°
2026-05-05 18:45 52.00850 14.91965 16436 ft 358 kts 294°
2026-05-05 18:46 52.01936 14.88401 16031 ft 354 kts 294°
2026-05-05 18:46 52.03018 14.84850 15744 ft 349 kts 294°
2026-05-05 18:46 52.04096 14.81300 15412 ft 352 kts 294°
2026-05-05 18:46 52.05107 14.77745 15047 ft 350 kts 287°
2026-05-05 18:47 52.05578 14.73894 14711 ft 343 kts 270°
2026-05-05 18:47 52.05551 14.70091 14367 ft 341 kts 267°
2026-05-05 18:47 52.05482 14.66227 14014 ft 342 kts 267°
2026-05-05 18:47 52.05391 14.62371 13650 ft 340 kts 266°
2026-05-05 18:48 52.05289 14.58589 13312 ft 338 kts 266°
2026-05-05 18:48 52.05177 14.54772 12950 ft 336 kts 266°
2026-05-05 18:48 52.05071 14.51033 12619 ft 335 kts 269°
2026-05-05 18:48 52.05341 14.47298 12502 ft 330 kts 281°
2026-05-05 18:49 52.05768 14.43630 12216 ft 339 kts 279°
2026-05-05 18:49 52.06144 14.39797 11794 ft 336 kts 278°
2026-05-05 18:49 52.06485 14.36133 11372 ft 329 kts 278°
2026-05-05 18:49 52.06809 14.32500 10948 ft 325 kts 277°
2026-05-05 18:50 52.07126 14.28865 10519 ft 323 kts 277°
2026-05-05 18:50 52.07329 14.26499 10240 ft 322 kts 277°
2026-05-05 18:50 52.07737 14.21689 9786 ft 316 kts 277°
2026-05-05 18:50 52.08026 14.18258 9773 ft 301 kts 277°
2026-05-05 18:51 52.08301 14.14984 9764 ft 285 kts 277°
2026-05-05 18:51 52.08558 14.11899 9776 ft 275 kts 277°
2026-05-05 18:51 52.08820 14.08736 9787 ft 286 kts 277°
2026-05-05 18:51 52.09085 14.05531 9777 ft 289 kts 277°
2026-05-05 18:52 52.09350 14.02311 9770 ft 286 kts 277°
2026-05-05 18:52 52.09613 13.99104 9776 ft 285 kts 277°
2026-05-05 18:52 52.09871 13.95944 9768 ft 285 kts 277°
2026-05-05 18:52 52.10130 13.92769 9775 ft 284 kts 277°
2026-05-05 18:53 52.10390 13.89562 9711 ft 281 kts 277°
2026-05-05 18:53 52.10646 13.86400 9252 ft 283 kts 277°
2026-05-05 18:53 52.10900 13.83255 8733 ft 285 kts 277°
2026-05-05 18:53 52.11159 13.80026 8590 ft 289 kts 277°
2026-05-05 18:54 52.11429 13.76667 8628 ft 317 kts 277°
2026-05-05 18:54 52.11716 13.73069 8642 ft 320 kts 277°
2026-05-05 18:54 52.12001 13.69482 8117 ft 319 kts 277°
2026-05-05 18:54 52.12277 13.65985 7638 ft 312 kts 278°
2026-05-05 18:55 52.12552 13.62495 7281 ft 309 kts 278°
2026-05-05 18:55 52.12824 13.59033 6931 ft 306 kts 278°
2026-05-05 18:55 52.13087 13.55675 6776 ft 296 kts 278°
2026-05-05 18:55 52.13334 13.52500 6609 ft 274 kts 278°
2026-05-05 18:56 52.13569 13.49470 6476 ft 262 kts 278°
2026-05-05 18:56 52.13792 13.46590 6285 ft 257 kts 278°
2026-05-05 18:56 52.14012 13.43746 6071 ft 253 kts 278°
2026-05-05 18:56 52.14233 13.40875 5789 ft 252 kts 278°
2026-05-05 18:57 52.14449 13.38056 5555 ft 250 kts 278°
2026-05-05 18:57 52.14660 13.35293 5352 ft 246 kts 279°
2026-05-05 18:57 52.14867 13.32571 5138 ft 240 kts 278°
2026-05-05 18:57 52.15072 13.29884 4956 ft 239 kts 278°
2026-05-05 18:58 52.15277 13.27182 4943 ft 241 kts 278°
2026-05-05 18:58 52.15532 13.24472 4948 ft 244 kts 290°
2026-05-05 18:58 52.16389 13.22120 4770 ft 245 kts 320°
2026-05-05 18:58 52.17792 13.20580 4491 ft 242 kts 333°
2026-05-05 18:59 52.19275 13.19282 4171 ft 243 kts 334°
2026-05-05 18:59 52.20775 13.17967 3984 ft 238 kts 334°
2026-05-05 18:59 52.22192 13.16718 3818 ft 233 kts 334°
2026-05-05 18:59 52.23613 13.15462 3592 ft 231 kts 334°
2026-05-05 19:00 52.25026 13.14203 3359 ft 229 kts 334°
2026-05-05 19:00 52.26406 13.12962 3132 ft 227 kts 334°
2026-05-05 19:00 52.27789 13.11774 2948 ft 220 kts 344°
2026-05-05 19:00 52.29222 13.11623 2972 ft 196 kts 21°
2026-05-05 19:01 52.30244 13.12827 2998 ft 175 kts 61°
2026-05-05 19:01 52.30472 13.14713 2998 ft 174 kts 93°
2026-05-05 19:01 52.30298 13.16717 2963 ft 178 kts 96°
2026-05-05 19:01 52.30096 13.18695 2951 ft 176 kts 96°
2026-05-05 19:02 52.29885 13.20657 2958 ft 176 kts 102°
2026-05-05 19:02 52.29420 13.22539 2970 ft 180 kts 111°
2026-05-05 19:02 52.29211 13.24421 3002 ft 163 kts 73°
2026-05-05 19:02 52.29608 13.26161 2843 ft 164 kts 66°
2026-05-05 19:03 52.30022 13.27879 2624 ft 160 kts 67°
2026-05-05 19:03 52.30415 13.29539 2410 ft 155 kts 66°
2026-05-05 19:03 52.30785 13.31095 2216 ft 139 kts 66°
2026-05-05 19:03 52.31127 13.32525 2044 ft 135 kts 66°
2026-05-05 19:04 52.31472 13.33964 1885 ft 135 kts 66°
2026-05-05 19:04 52.31804 13.35355 1686 ft 132 kts 66°
2026-05-05 19:04 52.32139 13.36759 1498 ft 133 kts 66°
2026-05-05 19:04 52.32487 13.38168 1320 ft 132 kts 65°
2026-05-05 19:05 52.32832 13.39560 1132 ft 135 kts 67°
2026-05-05 19:05 52.33169 13.41010 971 ft 134 kts 67°
2026-05-05 19:05 52.33493 13.42429 786 ft 135 kts 68°
2026-05-05 19:05 52.33838 13.43856 617 ft 137 kts 66°
2026-05-05 19:06 52.34191 13.45329 427 ft 140 kts 68°
2026-05-05 19:06 52.34536 13.46810 212 ft 138 kts 68°
2026-05-05 19:06 52.34859 13.48164 168 ft 105 kts 68°
2026-05-05 19:06 52.35048 13.48963 168 ft 33 kts 68°
2026-05-05 19:07 52.35147 13.49237 167 ft 22 kts 48°
2026-05-05 19:07 52.35257 13.49397 168 ft 16 kts 37°
2026-05-05 19:07 52.35306 13.49460 167 ft 10 kts 38°
2026-05-05 19:07 52.35352 13.49519 167 ft 7 kts 38°
2026-05-05 19:08 52.35392 13.49571 167 ft 7 kts 38°
2026-05-05 19:08 52.35435 13.49636 167 ft 9 kts 48°
2026-05-05 19:08 52.35468 13.49743 167 ft 12 kts 68°
2026-05-05 19:08 52.35502 13.49888 167 ft 15 kts 69°
2026-05-05 19:09 52.35544 13.50062 167 ft 17 kts 66°
2026-05-05 19:09 52.35586 13.50238 167 ft 16 kts 68°
2026-05-05 19:09 52.35625 13.50406 167 ft 15 kts 69°
2026-05-05 19:09 52.35663 13.50568 167 ft 14 kts 68°
2026-05-05 19:10 52.35700 13.50721 167 ft 14 kts 68°
2026-05-05 19:10 52.35750 13.50820 167 ft 9 kts
2026-05-05 19:10 52.35812 13.50799 167 ft 9 kts 339°
2026-05-05 19:10 52.35887 13.50752 167 ft 12 kts 339°
2026-05-05 19:11 52.35981 13.50693 167 ft 16 kts 338°
2026-05-05 19:11 52.36093 13.50622 167 ft 17 kts 339°
2026-05-05 19:11 52.36197 13.50557 167 ft 13 kts 338°
2026-05-05 19:11 52.36285 13.50501 167 ft 12 kts 339°
2026-05-05 19:12 52.36316 13.50481 167 ft 5 kts 338°
2026-05-05 19:12 52.36347 13.50474 167 ft 3 kts 22°
2026-05-05 19:12 52.36365 13.50507 167 ft 4 kts 57°
2026-05-05 19:12 52.36380 13.50560 167 ft 4 kts 68°
2026-05-05 19:13 52.36385 13.50582 167 ft 2 kts 68°
2026-05-05 19:13 52.36386 13.50584 167 ft 0 kts 68°